Dauntless Aviation
Airports Europe Germany
EDSW

Altdorf-Wallburg

Altdorf-Wallburg, GERMANY

Airport Info
Suggest Updated Information for this Airport

Location

Latitude / Longitude: 48°16'11"N / 7°50'31"E
  48°16.188'N / 7°50.532'E
  48.2698 / 7.8422
Satellite photo at:
Airport distance calculator
From:
Weather Reports

METAR

LFST
18.2nm NW
LFST 092300Z AUTO 00000KT 2300 BR NSC M01/M01 Q1030 TEMPO 0400 FZFG VV///

TAF

EDTL
5.8nm NW
TAF EDTL 091700Z 0918/0924 VRB02KT CAVOK TEMPO 0921/0924 3500 BR
LFST
18.2nm NW
TAF LFST 091700Z 0918/1018 VRB03KT 8000 FEW008 TEMPO 0918/1007 3000 BR PROB30 TEMPO 0921/1007 0400 FZFG VV///
EDSB
32.3nm N
TAF EDSB 091700Z 0918/1018 22005KT 9999 SCT040 BECMG 0918/0922 4000 BR PROB40 TEMPO 1000/1009 0400 FZFG BKN001 BECMG 1009/1012 9000
Safelog

 

Dauntless Aviation

© 2007-2016 Dauntless Aviation, all rights reserved
Information provided via PilotNav comes from a variety of official and unofficial data sources. As errors are possible, do not use PilotNav for primary flight planning purposes. Verify any information that you receive via PilotNav with current and canonical charts and other official documents. The material in this database is subject to database copyrights held by Dauntless Aviation and may not be copied without the express permission of Dauntless Aviation - licenses for use of part of all of this data are available for purchase; enquire via the Dauntless Aviation helpdesk. A number of mechanisms and markers exist in the database to protect against and identify infringement / copyright. Automated queries against this website are stictly prohibited, and all activity is logged and analyzed.